Location: *
(37.4917°N, 71.5558°E)
Time: 03:22:03
(UTC+00:00)

USA 245 - Pass Details

Date: 09 April 2020
Orbit: 269 x 1017 km, 97.9° (Epoch: 25 May)

Event Time Altitude Azimuth Distance (km) Brightness Sun altitude
Exits shadow 16:15:33 70° 56° (NE) 980 4.3 -28.2°
Drops below altitude 10° 16:21:37 10° 352° (N) 2,773 7.4 -29.2°
Sets 16:24:15 0° 351° (N) 3,759 8.2 -29.6°
